Location: Biharia
(46.4333°N, 22.8000°E)
Time: 09:06:10
(UTC+00:00)

Cosmos 2369 - Pass Details

Date: 16 October 2021
Orbit: 838 x 857 km, 71.0° (Epoch: 07 December)

Event Time Altitude Azimuth Distance (km) Brightness Sun altitude
Rises 17:01:19 0° 206° (SSW) 3,379 7.2 -14.7°
Reaches altitude 10° 17:03:44 10° 207° (SSW) 2,450 6.4 -15.1°
Maximum altitude 17:09:22 86° 295° (WNW) 851 3.7 -16.1°
Drops below altitude 10° 17:15:05 10° 26° (NNE) 2,478 5.9 -17.1°
Sets 17:17:33 0° 27° (NNE) 3,420 6.6 -17.5°
